Leominster, MA

1:10 PM EDT on August 31, 2016 (GMT -0400)
Fitchburg Municipal

Weather History for KFIT - December, 2012

Change the Weather History Date:

Wednesday, December 26, 2012

  Actual Average (KORH) Record (KORH)
Temperature  
Mean Temperature 24 °F 26 °F  
Max Temperature 33 °F 33 °F 58 °F (1964)
Min Temperature 16 °F 19 °F -11 °F (1968)
Degree Days  
Heating Degree Days 40 39  
Month to date heating degree days 903  
Since 1 July heating degree days 2305  
Cooling Degree Days 0 0  
Month to date cooling degree days 0  
Year to date cooling degree days 471  
Moisture  
Dew Point 19 °F    
Average Humidity 73    
Maximum Humidity 93    
Minimum Humidity 45    
Precipitation  
Precipitation 0.13 in 0.12 in 1.90 in (1969)
Month to date precipitation 3.27  
Year to date precipitation 47.52  
Sea Level Pressure  
Sea Level Pressure 30.19 in    
Wind  
Wind Speed 3 mph (NE)    
Max Wind Speed 10 mph    
Max Gust Speed 16 mph    
Visibility 7 miles    
Events Fog , Snow    
T = Trace of Precipitation, MM = Missing Value Source: NWS Daily Summary

Daily Weather History Graph

Daily Weather History Graph

Search for Another Location

Airport or City:

Trip Planner

Search our weather history database for the weather conditions in past years. The results will help you decide how hot, cold, wet, or windy it might be!

Date:

Astronomy

Dec. 26, 2012 Rise Set
Actual Time 7:15 AM EST 4:20 PM EST
Civil Twilight 6:43 AM EST 4:52 PM EST
Nautical Twilight 6:08 AM EST 5:27 PM EST
Astronomical Twilight 5:33 AM EST 6:02 PM EST
Moon 3:11 PM EST (12/26) 5:36 AM EST (12/26)
Length of Visible Light 10h 08m
Length of Day
9h 04m
Waxing Gibbous, 97% of the Moon is Illuminated
Dec 26
Waxing Gibbous
Dec 28
Full
Jan 4
Last Quarter
Jan 11
New
Jan 18
First Quarter

Hourly Weather History & Observations

Time (EST) Temp. Windchill Dew Point Humidity Pressure Visibility Wind Dir Wind Speed Gust Speed Precip Events Conditions
1:52 AM 19.9 °F - 12.9 °F 74% 30.27 in 10.0 mi Calm Calm - N/A   Clear
2:52 AM 21.9 °F - 12.9 °F 68% 30.30 in 10.0 mi Calm Calm - N/A   Clear
3:52 AM 21.0 °F 16.2 °F 12.0 °F 68% 30.30 in 10.0 mi NNW 3.5 mph - N/A   Clear
4:52 AM 19.0 °F - 12.0 °F 74% 30.30 in 10.0 mi Calm Calm - N/A   Clear
5:52 AM 19.0 °F - 12.0 °F 74% 30.29 in 10.0 mi Calm Calm - N/A   Clear
6:52 AM 16.0 °F 10.4 °F 12.0 °F 84% 30.30 in 10.0 mi WNW 3.5 mph - N/A   Clear
7:52 AM 18.0 °F - 12.9 °F 81% 30.31 in 10.0 mi Calm Calm - N/A   Clear
8:52 AM 23.0 °F - 14.0 °F 68% 30.33 in 10.0 mi Calm Calm - N/A   Clear
9:52 AM 27.0 °F - 12.9 °F 56% 30.33 in 10.0 mi Calm Calm - N/A   Clear
10:52 AM 32.0 °F 28.7 °F 12.9 °F 45% 30.31 in 10.0 mi NNE 3.5 mph - N/A   Clear
11:52 AM 32.0 °F - 15.1 °F 50% 30.27 in 10.0 mi Calm Calm - N/A   Clear
12:52 PM 32.0 °F 28.7 °F 15.1 °F 50% 30.27 in 10.0 mi SSE 3.5 mph - N/A   Clear
1:52 PM 33.1 °F 28.7 °F 14.0 °F 46% 30.24 in 10.0 mi Variable 4.6 mph - N/A   Clear
2:52 PM 32.0 °F 28.7 °F 12.9 °F 45% 30.25 in 10.0 mi East 3.5 mph - N/A   Clear
4:19 PM 32.0 °F 26.4 °F 17.6 °F 55% 30.20 in 10.0 mi ENE 5.8 mph - N/A   Mostly Cloudy
4:52 PM 30.9 °F 26.2 °F 19.9 °F 64% 30.23 in 10.0 mi NE 4.6 mph - N/A   Overcast
6:52 PM 30.9 °F 25.2 °F 23.0 °F 72% 30.17 in 10.0 mi Variable 5.8 mph - N/A   Overcast
7:52 PM 30.9 °F 26.2 °F 25.0 °F 79% 30.13 in 5.0 mi Variable 4.6 mph - 0.00 in Snow Light Snow
8:52 PM 30.9 °F 22.8 °F 27.0 °F 85% 30.08 in 4.0 mi NE 9.2 mph - 0.00 in Snow Light Snow
9:06 PM 30.2 °F 21.3 °F 28.4 °F 93% 30.06 in 3.0 mi NE 10.4 mph 16.1 mph 0.00 in Snow Light Snow
9:15 PM 32.0 °F 24.2 °F 28.4 °F 87% 30.04 in 2.0 mi NE 9.2 mph 16.1 mph 0.00 in Snow Light Snow
9:23 PM 30.2 °F 24.3 °F 28.4 °F 93% 30.03 in 1.2 mi ENE 5.8 mph - 0.00 in Snow Light Snow
9:28 PM 30.2 °F 26.7 °F 28.4 °F 93% 30.03 in 0.8 mi NE 3.5 mph - 0.01 in Snow Light Snow
9:47 PM 30.2 °F 24.3 °F 28.4 °F 93% 30.03 in 0.5 mi NE 5.8 mph - 0.04 in Fog , Snow Snow
9:52 PM 30.9 °F 26.2 °F 28.9 °F 92% 30.04 in 0.5 mi ENE 4.6 mph - 0.05 in Fog , Snow Snow
10:40 PM 32.0 °F 27.5 °F 28.4 °F 87% 29.97 in 1.0 mi Variable 4.6 mph - 0.07 in Snow Light Snow
10:52 PM 32.0 °F 24.8 °F 28.9 °F 88% 29.98 in 0.8 mi NE 8.1 mph - 0.08 in Snow Light Snow